Wind_Speed
1 5 8 3 3 4 4 5 3 4 4 8 9 9 9 8 2 3 13 13 14 16 12 13 7 8 7 7 7 3 1 2 4 6 5 2 2 2 2 4 5 4 6 7 6 6 7 4 3
3 7 3 1 4 0 5 1 3 3 11 15 12 6 7 3 2 11 13 14 15 15 12 9 8 7 7 7 5 3 1 2 2 3 5 7 6 4 1 1 2 1 2 3 5 5 6 7 6
5 4 2 4 3 5 4 2 7 9 11 6 7 9 6 6 9 13 11 14 14 14 12 7 6 6 6 5 4 2 1 1 2 3 3 4 5 6 5 4 2 0 2 3 4 4 4 5 7
4 4 3 3 7 5 4 7 9 10 6 5 14 8 8 9 14 13 15 14 14 14 12 9 6 4 4 4 3 1 1 1 3 3 5 6 6 5 5 5 4 2 0 2 3 5 6 7 7
3 2 0 3 6 3 3 16 17 6 8 8 4 8 8 11 14 19 20 17 13 14 13 11 9 7 5 4 4 2 1 0 2 5 4 5 8 8 7 7 7 6 4 3 3 6 8 9 10
3 2 2 5 5 3 5 18 16 10 13 10 7 13 8 13 18 22 22 18 16 14 11 8 8 8 7 6 5 5 5 3 3 2 4 7 5 7 9 9 9 9 8 7 7 7 7 9 11
4 3 5 5 5 4 7 20 11 10 13 6 12 6 10 19 20 21 22 18 15 13 12 10 8 6 7 5 3 3 3 3 3 4 4 5 6 7 5 9 10 10 11 10 10 10 10 10 13
4 3 4 5 7 7 13 11 7 11 6 15 16 8 8 26 24 21 20 18 16 15 12 10 8 7 5 4 4 3 3 3 3 3 4 5 7 8 9 8 9 13 11 12 13 14 13 12 13
3 0 4 5 3 5 11 5 4 7 16 10 11 7 7 25 26 23 21 19 17 15 13 11 9 7 5 3 2 1 2 5 6 6 6 6 7 7 8 9 8 9 12 14 14 15 15 15 15
2 2 5 1 2 3 7 4 11 7 7 4 7 7 13 26 28 27 23 19 17 15 13 11 9 7 5 3 1 3 4 6 7 8 9 10 9 10 11 11 11 11 9 9 12 13 14 16 16
4 5 4 4 5 6 6 5 10 12 5 14 18 22 25 26 27 26 22 20 18 16 13 11 9 6 3 1 2 5 6 7 8 8 9 11 11 11 10 10 11 12 11 11 9 10 13 13 14
4 4 2 1 1 1 6 11 7 13 6 7 20 24 27 27 29 28 26 25 21 18 15 13 10 7 5 3 2 3 4 6 8 9 10 11 12 12 13 14 13 12 12 13 13 13 12 12 14
3 1 0 3 3 5 4 8 7 18 16 11 20 26 28 28 28 26 27 24 21 19 17 15 12 9 6 4 3 3 4 6 8 10 12 13 13 15 15 15 16 15 14 14 14 15 14 15 13
2 1 5 6 6 5 4 3 6 12 22 20 27 29 30 32 32 33 31 28 24 21 18 14 11 9 6 3 2 2 4 6 8 9 12 14 14 15 16 16 17 18 20 19 18 16 15 16 17
1 4 4 8 8 4 5 7 14 12 24 26 29 28 30 32 33 34 32 28 25 22 18 15 12 8 4 2 1 3 4 5 7 9 11 13 14 15 16 17 18 18 19 20 20 20 20 19 18
1 1 3 1 10 5 6 8 3 27 31 27 29 28 29 32 33 32 29 26 25 22 20 17 13 9 6 4 3 3 4 6 7 9 11 12 14 15 16 17 17 19 19 20 21 22 23 23 24
3 4 6 4 10 5 7 7 2 26 28 25 30 31 32 36 35 34 30 28 27 23 21 17 14 11 8 5 4 3 4 6 7 8 9 10 12 13 14 15 17 19 19 20 22 23 24 25 26
6 5 6 6 5 4 5 18 4 19 24 26 30 32 35 39 39 35 31 30 27 24 21 18 14 10 8 5 3 3 5 6 7 7 7 8 9 12 14 15 16 16 18 19 20 22 22 25 28
1 4 7 2 2 6 12 19 11 20 22 22 28 32 35 40 38 35 34 34 30 26 22 18 15 12 8 5 4 4 6 6 6 6 7 9 13 16 16 16 15 16 17 17 20 22 25 26 29
3 4 6 1 1 2 8 19 13 14 26 40 34 34 38 38 41 41 38 35 32 28 23 20 15 12 9 6 5 7 8 8 7 6 7 11 15 15 15 16 16 16 16 15 15 17 20 21 22
3 5 3 4 4 5 6 12 8 8 27 28 37 37 42 48 47 45 41 38 33 29 26 22 18 13 9 7 6 7 8 8 7 8 9 12 13 13 13 13 14 15 17 17 16 16 16 18 18
3 2 1 1 4 4 1 11 6 7 10 16 26 31 33 37 42 46 44 38 34 30 25 22 18 14 10 7 7 8 9 9 9 10 11 12 12 13 11 11 14 16 16 16 17 16 17 18 21
5 2 3 3 1 4 3 4 2 0 9 5 9 25 33 41 44 45 45 39 33 28 25 22 17 14 10 8 8 9 10 10 10 11 12 13 13 12 12 14 13 14 15 16 18 19 19 19 19
5 1 1 2 2 3 8 8 4 4 7 4 4 24 34 41 43 43 42 38 32 28 26 24 20 14 11 9 10 11 11 11 12 12 14 14 14 14 14 15 16 17 17 18 19 20 20 21 21
2 3 2 3 2 6 3 4 10 7 5 2 4 20 31 39 43 44 44 38 33 31 30 27 21 16 12 10 12 12 11 11 12 13 14 15 16 16 16 17 17 17 18 19 21 21 21 21 23
6 5 4 6 4 4 4 7 6 3 3 6 3 20 29 37 41 42 41 37 33 33 31 26 21 15 12 12 12 12 12 12 13 14 15 16 17 17 18 18 19 19 21 23 23 22 22 23 25
4 5 0 1 2 2 4 8 4 1 3 5 3 11 20 29 34 37 37 34 34 34 31 26 18 15 13 11 11 12 13 13 14 15 16 17 17 18 19 20 21 21 22 22 22 23 24 25 27
3 2 2 1 3 6 5 6 6 7 5 2 3 6 16 23 26 30 33 34 33 29 24 21 19 14 12 11 12 13 13 14 15 16 17 17 17 18 20 21 21 22 21 22 22 23 25 26 26
2 2 3 2 1 3 3 5 5 4 4 6 8 16 20 26 29 29 33 33 30 25 23 20 15 13 12 13 15 15 13 14 15 16 16 17 18 19 20 21 21 21 21 22 23 24 25 25 25
4 4 4 2 3 4 3 9 5 5 3 4 10 19 21 24 28 28 28 28 26 23 21 18 15 12 12 15 16 16 14 14 15 15 15 16 18 19 21 22 21 21 21 22 23 24 23 24 25
Wind_Direction
188 150 129 111 66 71 256 254 101 121 74 59 88 88 111 51 64 175 143 163 164 174 164 140 93 108 107 130 151 176 59 22 13 4 359 20 325 268 225 129 104 144 137 138 125 129 121 146 190
113 127 122 138 93 85 270 212 82 356 132 118 84 71 60 99 96 145 148 162 170 170 165 158 129 98 108 125 128 155 151 23 5 308 349 353 354 10 38 316 247 225 147 146 162 179 166 153 131
116 133 135 126 169 196 217 123 144 131 130 137 110 90 106 111 133 153 160 170 170 167 171 159 121 104 106 113 116 150 184 333 348 328 312 314 331 333 352 28 34 116 256 224 196 179 181 185 168
127 152 224 127 240 253 172 172 142 137 103 119 126 81 117 151 175 178 159 179 171 166 164 159 150 141 118 106 111 157 29 303 303 315 313 312 308 309 317 322 321 348 43 258 254 233 205 201 203
177 195 247 227 245 206 87 156 152 144 144 141 147 151 137 161 192 173 169 185 181 171 166 158 148 134 118 103 90 86 100 333 306 303 303 295 308 312 310 304 301 297 292 270 252 230 232 226 218
231 191 115 229 246 188 136 162 147 132 141 138 122 133 163 186 187 178 182 185 180 179 174 163 146 139 124 102 84 75 58 31 28 354 302 305 305 285 301 301 291 287 286 274 257 253 231 227 233
172 119 217 223 214 190 194 161 159 150 147 172 157 121 164 187 190 182 184 187 181 178 176 171 170 161 152 146 126 106 93 75 25 14 357 342 328 330 321 292 297 293 277 269 262 256 247 241 239
239 130 255 234 222 227 169 144 143 152 162 146 167 180 187 193 187 187 183 182 181 180 179 177 174 174 159 137 108 89 46 35 54 18 349 338 335 327 315 304 297 291 286 283 265 262 257 250 249
236 49 235 252 229 174 165 136 136 134 139 165 188 199 225 188 186 183 184 181 182 181 181 178 173 174 175 169 161 94 20 357 356 358 357 354 346 333 328 320 309 288 285 285 281 270 262 256 251
146 173 243 346 16 186 173 137 147 146 139 174 177 180 173 179 185 183 184 183 182 182 180 177 176 179 182 199 291 333 345 347 349 356 354 352 352 348 342 335 326 323 314 295 290 284 270 258 254
209 213 330 18 20 43 178 143 178 135 213 206 187 169 171 180 184 185 184 191 193 188 184 180 178 178 184 224 325 340 347 346 349 354 354 358 357 356 349 338 331 329 325 320 313 292 286 278 265
218 244 134 161 51 38 167 159 180 191 208 223 228 209 189 189 188 186 187 196 198 193 190 190 190 192 199 221 264 298 314 322 330 338 345 351 352 351 350 349 347 341 332 328 320 312 307 294 283
193 257 299 170 208 231 254 182 204 217 220 218 195 194 197 196 192 189 197 202 202 197 193 191 192 198 208 227 256 293 321 335 341 344 344 345 352 350 353 350 346 342 342 336 328 320 313 308 297
178 211 226 228 214 213 188 249 194 231 199 189 186 192 197 197 193 192 200 204 202 199 197 193 193 194 200 216 276 327 347 349 346 348 343 339 346 344 348 348 346 344 344 344 340 332 322 316 309
7 317 261 215 201 232 161 270 235 208 185 184 190 197 199 196 197 202 202 202 203 199 197 192 192 192 192 202 277 311 324 327 331 334 332 330 336 337 340 341 339 336 335 334 332 331 329 324 316
266 229 287 181 150 182 151 260 197 193 182 177 190 199 198 195 198 203 206 204 202 201 194 193 192 191 197 209 233 280 310 326 331 333 328 330 335 336 339 342 339 336 336 335 333 331 328 326 323
265 245 217 293 192 147 185 264 16 179 180 184 190 194 195 194 199 202 208 206 204 202 198 195 195 194 198 209 231 273 310 323 326 325 318 324 326 331 334 337 335 333 334 333 332 331 331 329 327
213 228 250 229 203 199 210 255 218 193 191 198 197 195 196 197 200 202 203 200 205 204 197 194 194 198 202 210 247 302 321 319 320 321 322 320 320 325 328 327 326 325 324 324 323 326 327 330 328
263 242 254 276 236 194 234 254 238 204 211 214 205 199 196 199 201 198 200 200 204 207 201 197 196 201 209 225 264 295 310 313 318 323 324 322 325 325 323 322 321 323 322 323 324 323 325 327 330
238 263 261 230 35 184 266 261 243 219 221 215 208 201 196 192 195 194 197 203 208 205 199 198 200 207 216 237 279 303 309 313 321 321 310 306 307 312 320 324 326 328 326 324 321 320 319 320 329
248 218 266 258 308 234 325 276 226 258 241 221 222 210 200 193 187 191 196 200 206 203 198 199 205 211 225 247 278 295 305 311 302 283 288 290 303 315 320 322 322 324 325 324 324 321 323 319 316
240 164 191 304 28 253 352 294 187 221 245 213 212 202 195 187 188 191 195 198 207 204 200 203 210 216 225 250 275 290 299 302 298 295 300 303 308 313 313 314 315 318 320 318 319 321 320 317 312
226 173 179 150 134 6 226 239 261 274 258 244 203 194 190 186 185 191 196 205 207 203 200 209 213 221 230 255 274 289 294 292 294 295 301 304 306 306 307 309 311 309 304 306 309 310 308 306 302
135 99 350 33 139 236 214 185 287 211 215 272 244 186 183 182 187 194 198 201 200 196 200 208 219 224 236 260 274 284 285 287 295 300 299 301 305 307 308 309 306 301 300 301 300 296 291 290 290
143 122 294 314 330 237 149 181 248 261 261 273 229 177 182 186 188 190 193 194 193 192 199 209 217 223 240 260 274 281 282 289 294 295 296 298 303 308 308 307 304 303 302 300 297 295 293 294 290
181 193 190 245 225 269 325 243 251 249 325 343 227 191 184 187 191 192 193 191 191 193 202 213 219 226 245 262 277 286 293 294 293 292 293 298 301 303 304 303 302 299 297 295 295 294 294 291 288
186 202 209 43 195 14 223 293 313 349 343 344 17 174 183 188 189 189 189 190 191 195 206 217 218 240 253 266 288 299 297 293 292 293 295 297 299 300 300 300 299 295 292 292 294 295 293 290 286
174 320 95 21 250 253 280 280 241 335 303 218 290 195 189 187 187 187 189 190 194 203 213 217 232 244 261 284 301 301 296 293 294 295 295 296 298 299 300 298 295 291 290 292 294 293 291 288 287
106 264 287 4 239 247 299 262 196 233 246 206 205 204 196 194 189 186 188 192 199 206 213 220 237 257 275 298 303 302 295 292 293 295 297 300 301 305 304 299 295 292 292 294 294 293 293 290 290
147 188 181 187 247 248 271 264 181 195 279 191 204 205 201 202 199 194 190 194 204 210 219 226 243 256 278 289 294 298 296 295 295 297 298 301 304 305 306 303 297 294 293 296 296 296 294 293 292
Height
1504 1505 1504 1506 1518 1520 1520 1504 1497 1503 1509 1513 1510 1511 1517 1522 1523 1527 1529 1531 1534 1536 1539 1539 1541 1541 1541 1540 1539 1540 1538 1539 1540 1541 1539 1540 1540 1541 1539 1540 1542 1541 1542 1542 1542 1542 1542 1544 1543
1503 1504 1505 1506 1522 1527 1519 1496 1507 1508 1508 1510 1511 1514 1517 1526 1524 1525 1528 1529 1531 1534 1537 1537 1539 1539 1537 1537 1538 1538 1539 1540 1539 1539 1539 1537 1538 1538 1539 1539 1540 1541 1542 1541 1541 1541 1542 1541 1541
1502 1502 1504 1509 1519 1520 1512 1502 1506 1507 1507 1508 1511 1514 1519 1524 1524 1524 1526 1527 1530 1533 1535 1536 1536 1536 1536 1537 1537 1538 1538 1538 1538 1538 1537 1537 1537 1536 1536 1536 1537 1539 1541 1540 1541 1541 1542 1542 1542
1502 1503 1505 1510 1511 1499 1496 1502 1503 1505 1507 1507 1509 1516 1519 1521 1521 1523 1525 1525 1529 1532 1534 1535 1535 1535 1536 1536 1536 1536 1537 1537 1537 1537 1536 1535 1536 1535 1535 1534 1536 1536 1538 1538 1539 1540 1542 1542 1542
1501 1501 1508 1509 1503 1495 1494 1495 1497 1501 1504 1507 1508 1516 1519 1519 1521 1522 1523 1525 1528 1530 1532 1533 1534 1534 1534 1534 1534 1534 1535 1535 1535 1533 1533 1535 1533 1532 1533 1533 1534 1534 1536 1536 1536 1537 1538 1540 1540
1500 1498 1511 1513 1500 1494 1493 1494 1495 1499 1503 1506 1509 1514 1517 1517 1519 1520 1521 1523 1526 1528 1529 1530 1531 1533 1533 1533 1533 1533 1534 1532 1533 1533 1531 1531 1531 1531 1529 1530 1531 1532 1533 1534 1534 1535 1536 1536 1537
1498 1501 1504 1496 1497 1496 1492 1493 1493 1497 1501 1504 1506 1513 1516 1516 1517 1519 1521 1522 1524 1526 1527 1529 1530 1530 1531 1532 1531 1532 1532 1531 1531 1531 1530 1529 1529 1527 1527 1528 1527 1528 1530 1530 1531 1532 1532 1533 1534
1496 1496 1493 1491 1490 1489 1486 1488 1491 1492 1498 1501 1503 1506 1511 1510 1514 1517 1519 1521 1523 1525 1526 1527 1528 1528 1529 1529 1530 1530 1529 1529 1530 1529 1529 1528 1525 1524 1526 1528 1524 1527 1526 1526 1526 1528 1529 1529 1530
1495 1499 1499 1487 1481 1483 1484 1486 1490 1493 1494 1497 1499 1499 1501 1504 1511 1515 1517 1519 1521 1522 1524 1525 1527 1527 1527 1527 1527 1527 1528 1527 1527 1527 1527 1526 1525 1526 1525 1523 1523 1525 1522 1522 1522 1524 1524 1524 1525
1495 1502 1491 1483 1482 1484 1484 1486 1488 1493 1496 1498 1498 1498 1500 1503 1507 1510 1514 1517 1519 1520 1522 1524 1525 1526 1526 1526 1525 1525 1525 1525 1525 1525 1524 1523 1524 1524 1523 1522 1521 1520 1519 1520 1518 1518 1521 1520 1520
1489 1492 1485 1485 1485 1485 1486 1488 1489 1489 1496 1490 1493 1498 1501 1503 1505 1509 1512 1513 1515 1518 1520 1521 1523 1523 1524 1524 1524 1523 1523 1523 1524 1524 1523 1522 1522 1523 1522 1522 1519 1517 1516 1516 1514 1516 1518 1515 1515
1487 1482 1482 1483 1484 1484 1485 1485 1486 1486 1483 1484 1487 1492 1497 1500 1502 1504 1507 1510 1512 1514 1516 1518 1520 1522 1523 1523 1523 1523 1523 1522 1521 1521 1520 1520 1519 1519 1519 1517 1516 1516 1514 1512 1511 1513 1512 1512 1512
1483 1482 1482 1481 1481 1482 1484 1481 1480 1477 1478 1480 1483 1487 1491 1496 1501 1504 1506 1508 1510 1512 1514 1516 1518 1519 1521 1521 1522 1522 1521 1520 1519 1518 1517 1517 1517 1516 1514 1512 1511 1511 1510 1510 1509 1509 1507 1507 1508
1480 1480 1480 1479 1479 1479 1480 1481 1480 1471 1473 1475 1476 1479 1482 1487 1492 1497 1499 1502 1505 1508 1511 1514 1516 1517 1518 1519 1520 1520 1519 1519 1518 1518 1516 1515 1515 1514 1513 1511 1510 1508 1506 1506 1507 1505 1505 1505 1503
1480 1482 1480 1477 1477 1478 1478 1480 1472 1470 1471 1473 1476 1478 1480 1483 1488 1490 1493 1497 1500 1504 1507 1510 1513 1514 1516 1517 1518 1518 1518 1518 1517 1516 1515 1513 1512 1511 1509 1508 1507 1506 1505 1503 1502 1500 1499 1498 1497
1482 1482 1483 1472 1474 1477 1480 1471 1460 1462 1465 1470 1473 1476 1479 1483 1486 1490 1493 1494 1497 1500 1503 1506 1509 1512 1514 1515 1516 1516 1517 1516 1514 1513 1512 1510 1509 1508 1506 1506 1504 1504 1502 1501 1500 1498 1495 1493 1492
1485 1486 1482 1473 1472 1475 1477 1466 1460 1461 1464 1467 1468 1470 1475 1477 1480 1483 1488 1491 1491 1495 1499 1503 1506 1509 1511 1512 1513 1514 1514 1513 1512 1511 1510 1510 1508 1507 1505 1504 1502 1501 1499 1498 1496 1494 1492 1490 1489
1482 1483 1472 1468 1470 1473 1475 1463 1462 1463 1462 1461 1463 1465 1469 1472 1473 1478 1482 1486 1492 1494 1496 1499 1503 1506 1508 1508 1509 1510 1511 1510 1510 1509 1508 1508 1506 1505 1504 1502 1501 1500 1498 1497 1497 1493 1491 1488 1484
1471 1471 1471 1465 1466 1469 1465 1454 1453 1456 1457 1455 1453 1455 1459 1464 1470 1474 1478 1482 1486 1492 1494 1497 1499 1502 1504 1505 1507 1507 1508 1508 1507 1506 1505 1504 1502 1501 1500 1500 1498 1496 1495 1494 1492 1488 1485 1484 1481
1470 1469 1470 1467 1468 1469 1463 1447 1445 1445 1436 1433 1439 1443 1447 1455 1460 1465 1471 1477 1481 1486 1490 1493 1496 1498 1500 1502 1503 1504 1504 1504 1503 1502 1502 1501 1500 1499 1497 1496 1495 1494 1493 1492 1491 1489 1487 1486 1484
1471 1470 1467 1469 1469 1466 1467 1439 1435 1423 1423 1426 1426 1429 1434 1436 1446 1456 1463 1469 1476 1481 1485 1489 1492 1495 1497 1498 1499 1500 1500 1500 1500 1499 1499 1499 1498 1496 1495 1494 1493 1492 1490 1490 1489 1488 1486 1485 1485
1470 1471 1471 1471 1474 1474 1463 1442 1421 1416 1414 1412 1417 1421 1428 1436 1445 1452 1459 1465 1471 1478 1482 1485 1489 1492 1493 1494 1496 1497 1497 1497 1497 1496 1495 1495 1494 1494 1493 1491 1490 1488 1487 1487 1487 1484 1484 1483 1483
1466 1471 1470 1470 1474 1478 1471 1475 1418 1417 1413 1415 1412 1417 1422 1429 1437 1444 1452 1460 1468 1475 1480 1483 1487 1489 1490 1491 1493 1493 1493 1493 1492 1492 1491 1491 1491 1490 1489 1487 1485 1485 1485 1483 1482 1480 1481 1481 1482
1471 1473 1475 1477 1479 1480 1459 1458 1441 1428 1416 1416 1411 1412 1417 1424 1431 1439 1448 1455 1463 1469 1475 1480 1483 1486 1487 1488 1489 1489 1489 1488 1487 1487 1487 1487 1487 1486 1484 1482 1481 1481 1480 1478 1477 1478 1478 1478 1478
1471 1472 1473 1480 1501 1454 1447 1464 1425 1415 1418 1417 1413 1414 1419 1424 1429 1436 1442 1450 1458 1463 1468 1473 1477 1480 1483 1485 1486 1486 1485 1483 1482 1482 1483 1482 1481 1480 1478 1477 1476 1475 1474 1474 1474 1473 1472 1471 1472
1470 1466 1457 1457 1461 1454 1463 1446 1414 1421 1418 1417 1416 1417 1419 1424 1428 1434 1441 1449 1456 1462 1467 1471 1474 1477 1479 1480 1481 1480 1479 1479 1478 1478 1478 1477 1475 1474 1473 1472 1470 1470 1469 1469 1468 1466 1465 1466 1466
1464 1466 1460 1465 1465 1479 1445 1427 1414 1421 1421 1420 1421 1422 1425 1429 1432 1436 1444 1449 1454 1459 1463 1467 1471 1473 1475 1476 1475 1475 1475 1475 1475 1474 1473 1472 1471 1469 1468 1466 1465 1464 1464 1464 1462 1460 1460 1460 1461
1461 1462 1462 1466 1460 1454 1448 1438 1416 1417 1422 1425 1427 1426 1428 1431 1436 1441 1446 1450 1455 1459 1463 1466 1468 1469 1471 1471 1470 1470 1470 1470 1470 1469 1469 1467 1466 1464 1462 1461 1460 1459 1459 1458 1456 1455 1455 1454 1453
1468 1462 1465 1460 1460 1451 1454 1436 1426 1428 1424 1421 1423 1425 1427 1430 1433 1438 1443 1448 1453 1457 1460 1463 1465 1465 1466 1466 1466 1466 1466 1466 1465 1464 1464 1463 1461 1458 1456 1455 1455 1453 1453 1452 1450 1450 1449 1447 1445
1458 1460 1460 1462 1462 1460 1456 1426 1420 1419 1419 1418 1419 1422 1425 1428 1432 1438 1442 1446 1449 1452 1455 1457 1459 1460 1461 1461 1461 1461 1461 1461 1461 1460 1459 1458 1456 1454 1452 1451 1449 1448 1447 1447 1445 1443 1442 1440 1439